Weather History for Adrian, MI

Change the Weather History Date:

Sunday, May 12, 2013

  Actual Average Record
Temperature  
Mean Temperature 42 °F -  
Max Temperature 50 °F 67 °F 88 °F (1991)
Min Temperature 34 °F 45 °F 34 °F (2013)
Degree Days  
Heating Degree Days 22    
Moisture  
Dew Point 27 °F    
Average Humidity 60    
Maximum Humidity 89    
Minimum Humidity 41    
Precipitation  
Precipitation 0.00 in - - ()
Sea Level Pressure  
Sea Level Pressure 30.03 in    
Wind  
Wind Speed 10 mph (WNW)    
Max Wind Speed 22 mph    
Max Gust Speed 33 mph    
Visibility 10 miles    
Events      
Averages and records for this station are not official NWS values.
T = Trace of Precipitation, MM = Missing Value Source: NWS Daily Summary

Daily Weather History Graph

Daily Weather History Graph

Search for Another Location

Airport:

Trip Planner

Search our weather history database for the weather conditions in past years. The results will help you decide how hot, cold, wet, or windy it might be!

Date:

Astronomy

May. 12, 2013 Rise Set
Actual Time 6:19 AM EDT 8:46 PM EDT
Civil Twilight 5:47 AM EDT 9:18 PM EDT
Nautical Twilight 5:08 AM EDT 9:57 PM EDT
Astronomical Twilight 4:24 AM EDT 10:42 PM EDT
Moon 8:12 AM EDT (5/12) 11:13 PM EDT (5/12)
Length of Visible Light 15h 31m
Length of Day
14h 27m
Waxing Crescent, 6% of the Moon is Illuminated
May 12
Waxing Crescent
May 18
First Quarter
May 25
Full
May 31
Last Quarter
Jun 8
New

Hourly Weather History & Observations

Time (EDT) Temp. Windchill Dew Point Humidity Pressure Visibility Wind Dir Wind Speed Gust Speed Precip Events Conditions
12:53 AM 39.0 °F 34.8 °F 32.0 °F 76% 29.96 in 10.0 mi West 5.8 mph - N/A   Clear
1:53 AM 39.0 °F 34.0 °F 30.9 °F 73% 29.96 in 10.0 mi West 6.9 mph - N/A   Clear
2:53 AM 37.9 °F 32.1 °F 32.0 °F 79% 29.95 in 10.0 mi West 8.1 mph - N/A   Clear
3:53 AM 36.0 °F 31.1 °F 32.0 °F 86% 29.95 in 10.0 mi West 5.8 mph - N/A   Clear
4:53 AM 35.1 °F 30.1 °F 32.0 °F 89% 29.95 in 10.0 mi West 5.8 mph - N/A   Clear
5:53 AM 36.0 °F 31.1 °F 32.0 °F 86% 29.94 in 10.0 mi West 5.8 mph - N/A   Clear
6:53 AM 37.0 °F 29.3 °F 30.9 °F 79% 29.96 in 10.0 mi WNW 11.5 mph 18.4 mph N/A   Scattered Clouds
7:53 AM 37.9 °F 30.9 °F 28.9 °F 70% 29.97 in 10.0 mi NW 10.4 mph 23.0 mph N/A   Scattered Clouds
8:53 AM 39.0 °F 29.9 °F 28.0 °F 65% 29.99 in 10.0 mi NW 17.3 mph 28.8 mph N/A   Mostly Cloudy
9:53 AM 42.1 °F 32.8 °F 26.1 °F 53% 30.01 in 10.0 mi NNW 21.9 mph 31.1 mph N/A   Mostly Cloudy
10:53 AM 43.0 °F 35.7 °F 26.1 °F 51% 30.01 in 10.0 mi NW 15.0 mph 27.6 mph N/A   Overcast
11:53 AM 44.1 °F 37.1 °F 26.1 °F 49% 30.03 in 10.0 mi NW 15.0 mph 26.5 mph N/A   Overcast
12:53 PM 46.9 °F - 27.0 °F 46% 30.03 in 10.0 mi West 15.0 mph 24.2 mph N/A   Mostly Cloudy
1:53 PM 50.0 °F - 27.0 °F 41% 30.03 in 10.0 mi NW 15.0 mph - N/A   Mostly Cloudy
2:53 PM 48.0 °F - 25.0 °F 41% 30.04 in 10.0 mi WNW 18.4 mph 33.4 mph N/A   Mostly Cloudy
3:53 PM 48.0 °F - 25.0 °F 41% 30.05 in 10.0 mi NW 16.1 mph 28.8 mph N/A   Overcast
4:53 PM 46.0 °F 39.3 °F 25.0 °F 44% 30.06 in 10.0 mi NW 16.1 mph 28.8 mph N/A   Overcast
5:53 PM 46.0 °F 39.0 °F 26.1 °F 46% 30.07 in 10.0 mi WNW 17.3 mph 25.3 mph N/A   Overcast
6:53 PM 45.0 °F 38.9 °F 25.0 °F 46% 30.08 in 10.0 mi NW 12.7 mph - N/A   Overcast
7:53 PM 44.1 °F 37.7 °F 23.0 °F 43% 30.09 in 10.0 mi NW 12.7 mph 19.6 mph N/A   Mostly Cloudy
8:53 PM 42.1 °F 36.1 °F 24.1 °F 49% 30.10 in 10.0 mi NW 10.4 mph 19.6 mph N/A   Scattered Clouds
9:53 PM 39.9 °F 35.1 °F 23.0 °F 51% 30.12 in 10.0 mi NW 6.9 mph - N/A   Clear
10:53 PM 37.0 °F 34.5 °F 24.1 °F 59% 30.14 in 10.0 mi West 3.5 mph - N/A   Clear
11:53 PM 34.0 °F - 24.1 °F 67% 30.14 in 10.0 mi Calm Calm - N/A   Clear